This is the latest recevied weather packets stored in our database for station/object WX5HOT. If no packets are shown the sender has not sent any weather packets the latest 1 day(s).
| Time | Temp. | Humidity | Pressure | Rain* | Wind** | Luminosity | Snow |
|---|---|---|---|---|---|---|---|
| 1778049672 | 15° C | 98% | 1058.3 hPa | 0 mm | - | 0 W/m² | - |
| 1778049067 | 15° C | 97% | 1058.2 hPa | 0 mm | - | 0 W/m² | - |
| 1778048766 | 15.56° C | 97% | 1058.7 hPa | 0 mm | - | 0 W/m² | - |
| 1778048158 | 16.11° C | 97% | 1058.7 hPa | 0 mm | - | 0 W/m² | - |
| 1778047856 | 16.11° C | 97% | 1058.5 hPa | 0 mm | - | 0 W/m² | - |
| 1778047554 | 16.67° C | 97% | 1058.7 hPa | 0 mm | - | 0 W/m² | - |
| 1778046948 | 16.67° C | 96% | 1058.6 hPa | 0 mm | - | 0 W/m² | - |
| 1778046342 | 17.78° C | 97% | 1058.7 hPa | 0 mm | - | 0 W/m² | - |
| 1778045736 | 18.33° C | 97% | 1058.9 hPa | 0 mm | - | 0 W/m² | - |
| 1778045132 | 19.44° C | 96% | 1058.8 hPa | 0 mm | - | 0 W/m² | - |
| 1778044526 | 21.11° C | 94% | 1058.4 hPa | 0 mm | - | 0 W/m² | - |
| 1778044223 | 21.11° C | 94% | 1058.6 hPa | 0 mm | - | 0 W/m² | - |
| 1778043921 | 21.11° C | 93% | 1058.9 hPa | 0 mm | - | 0 W/m² | - |
| 1778043618 | 21.11° C | 93% | 1058.8 hPa | 0 mm | - | 0 W/m² | - |
| 1778043314 | 21.11° C | 93% | 1058.6 hPa | 0 mm | - | 0 W/m² | - |
| 1778043011 | 21.11° C | 93% | 1058.7 hPa | 0 mm | - | 0 W/m² | - |
| 1778042709 | 21.11° C | 93% | 1058.6 hPa | 0 mm | - | 0 W/m² | - |
| 1778042406 | 21.11° C | 93% | 1058.8 hPa | 0 mm | - | 0 W/m² | - |
| 1778041801 | 21.11° C | 94% | 1058.6 hPa | 0 mm | - | 0 W/m² | - |
| 1778040895 | 21.11° C | 94% | 1058.3 hPa | 0 mm | - | 0 W/m² | - |
| 1778040593 | 21.11° C | 94% | 1058 hPa | 0 mm | - | 0 W/m² | - |
| 1778040290 | 21.67° C | 93% | 1058 hPa | 0 mm | - | 0 W/m² | - |
| 1778039986 | 21.11° C | 93% | 1058.3 hPa | 0 mm | - | 0 W/m² | - |
| 1778039683 | 21.11° C | 94% | 1057.9 hPa | 0 mm | - | 0 W/m² | - |
| 1778039077 | 21.11° C | 94% | 1058.2 hPa | 0 mm | - | 0 W/m² | - |
* Rain latest hour (hover to see other rain measurements)
** Current wind speed in m/s (hover to see current wind gust speed)